User: anonymous   Login
Location: Unspecified
(0.0000°N, 0.0000°E)
Time: 18:55:56
(UTC+00:00)
Language:

FIREBIRD 4 - Orbit

View from above orbital plane
View from above orbital plane
View from above satellite
View from above satellite

Ground track
Ground track

The orbit data is extracted from the following two-line orbital elements,

1 40378U 15003C   17145.81580043 +.00002421 +00000-0 +10581-3 0  9995
2 40378 099.1219 325.3511 0137779 076.5658 285.0883 15.15281238127624
Epoch (UTC): 25 May 2017 19:34:45
Eccentricity: 0.0137779
inclination: 99.1219°
perigee height: 425 km
apogee height: 615 km
right ascension of ascending node: 325.3511°
argument of perigee: 76.5658°
revolutions per day: 15.15281238
mean anomaly at epoch: 285.0883°
orbit number at epoch: 12762

The dashed part of the orbit path shows where the satellite is in the earth's shadow,  

DLR